Showing default

PORCUPINE 2, 1577

Orbit data source: Space-Track

PORCUPINE 2, 1577 is a payload satellite owned by NRL (US) in LEO that was launched on Fri, 13 Aug 1965 UTC via a THOR ABLESTAR launch vehicle from the Air Force Western Test Range (AFWTR). Payloads include a variety of satellites, spacecraft, and rockets equipped with specific instruments for various scientific and technological missions. These include communications satellites like Starlink; space stations such as the ISS; scientific satellites like the Hubble; Earth observation satellites from companies like Planet Labs, Umbra, and HawkEye 360; GPS; miniature CubeSats for education and research; and military/defense satellites.

Loading next visibility...
PORCUPINE 2 details
Identifier
1577, 1965-065J
Orbit
LEO
Last TLE update17 hours ago
Origin
Flag of USNRL (US)
ManufacturerNRL
MissionDefense Calibration
Bus & MotorSURCAL, Unknown motor
Mass5 kg wet, 5 kg dry
Launch date (UTC)
1965-08-13 (59 years ago)
Launch vehicle
THOR ABLESTAR
Launch site
Air Force Western Test Range (AFWTR)
Object type
Payload
Rocket body
Debris
Shape & HBRBox, 0.2 m
Radar Cross Section0.060 m², Medium (>0.1 m² and < 1m²)

Expand to show TLE details & history

TLE from 17 hours ago
0 PORCUPINE 2
1 01577U 65065J   24355.89890344  .00000154  00000-0  27832-3 0  9991
2 01577  89.9965 211.2266 0069653 195.3991 228.3825 13.36120673890104
Epoch: 2024-12-20T21:34Z
Definitive object data (Epoch: 2024-12-20T21:34:25.257Z)
Latitude63.2722°
Longitude157.67048°
Altitude1,169.638 km
Speed7.257 km/s
True Right ascension14h 04m 56s
True Declination63° 08' 29"
Sunlit
Object was in daylight at TLE epoch
Visualization TLE readout
Latitude-37.48455°
Longitude-22.33401°
Altitude1,090.17 km
Speed7.329 km/s
Apparent Right ascension01h 50m 28s
Apparent Declination-38° 29' 56"
Sunlit
Object is in daylight
Visualization observer readout
Local Sidereal Time13:32:58
Azimuth291.296° WNW
Elevation-86.326°
Doppler factor1
Orbital elements
Apogee altitude1,173.067 km
Perigee altitude1,068.602 km
Semi-major axis7,498.972 km
Eccentricity0.0069653
Inclination89.9965°
RAAN211.2266°
Arg. of periapsis195.3991°
True anomaly227.78924°
Mean anomaly228.3825°
Eccentric anomaly228.08553°
Mean motion3.34226 °/min
BSTAR0.00027832
Orbital period107.71 mins
Loading maneuver chart data...
Loading historical data...
Loading historical data...
Loading historical data...
Loading historical data...
Loading historical data...
Loading historical data...
Loading historical data...

PORCUPINE 2 Visibility forecast

Observer location: undefined°, undefined

Span
Click to sort rows by Start time (UTC) header in descending order
Start Az.
Max El. time (UTC)
Max El. Az.
Max El.
End time (UTC)
End Az.
13 mins2024-12-21 15:18:49.902Z189.907° SSW2024-12-21 15:25:49.902Z274.92° WNW41.697°2024-12-21 15:31:49.902Z349.564° N
11 mins2024-12-22 02:37:49.902Z10.546° NNE2024-12-22 02:42:49.902Z86.324° E42.727°2024-12-22 02:48:49.902Z171.893° S
7 mins2024-12-22 04:26:49.902Z318.746° NNW2024-12-22 04:29:49.902Z287.31° WNW18.388°2024-12-22 04:33:49.902Z248.367° W
|